This is the latest recevied weather packets stored in our database for station/object KB3UMW-13. If no packets are shown the sender has not sent any weather packets the latest 10 day(s).
| Time | Temp. | Humidity | Pressure | Rain* | Wind** | Luminosity | Snow |
|---|---|---|---|---|---|---|---|
| 1777765195 | 4.44° C | 70% | 1012.9 hPa | 0 mm | - | 9 W/m² | - |
| 1777764890 | 5° C | 73% | 1012.7 hPa | 0 mm | - | 15 W/m² | - |
| 1777764587 | 5° C | 68% | 1012.9 hPa | 0 mm | - | 20 W/m² | - |
| 1777764284 | 5° C | 68% | 1012.9 hPa | 0 mm | - | 25 W/m² | - |
| 1777763981 | 5° C | 64% | 1012.8 hPa | 0 mm | - | 11 W/m² | - |
| 1777763678 | 5° C | 67% | 1012.9 hPa | 0 mm | - | 17 W/m² | - |
| 1777763376 | 5° C | 66% | 1012.9 hPa | 0 mm | - | 32 W/m² | - |
| 1777763074 | 5.56° C | 63% | 1012.8 hPa | 0 mm | - | 42 W/m² | - |
| 1777762772 | 5.56° C | 65% | 1012.8 hPa | 0 mm | - | 58 W/m² | - |
| 1777762467 | 5.56° C | 67% | 1012.8 hPa | 0 mm | - | 50 W/m² | - |
| 1777762165 | 5.56° C | 66% | 1012.6 hPa | 0 mm | - | 59 W/m² | - |
| 1777761861 | 5.56° C | 65% | 1012.8 hPa | 0 mm | - | 79 W/m² | - |
| 1777761558 | 5.56° C | 68% | 1012.6 hPa | 0 mm | - | 44 W/m² | - |
| 1777761256 | 6.11° C | 63% | 1012.4 hPa | 0 mm | - | 44 W/m² | - |
| 1777760954 | 6.11° C | 64% | 1012.4 hPa | 0 mm | - | 45 W/m² | - |
| 1777760651 | 6.11° C | 60% | 1012.5 hPa | 0 mm | - | 67 W/m² | - |
| 1777760351 | 6.11° C | 62% | 1012.4 hPa | 0 mm | - | 92 W/m² | - |
| 1777760048 | 6.67° C | 66% | 1012.5 hPa | 0 mm | - | 105 W/m² | - |
| 1777759745 | 6.11° C | 61% | 1012.5 hPa | 0 mm | - | 98 W/m² | - |
| 1777759441 | 6.67° C | 63% | 1012.6 hPa | 0 mm | - | 92 W/m² | - |
| 1777759137 | 6.67° C | 62% | 1012.5 hPa | 0 mm | - | 78 W/m² | - |
| 1777758835 | 6.67° C | 60% | 1012.4 hPa | 0 mm | - | 98 W/m² | - |
| 1777758532 | 6.67° C | 61% | 1012.4 hPa | 0 mm | - | 124 W/m² | - |
| 1777758228 | 6.67° C | 62% | 1012.4 hPa | 0 mm | - | 83 W/m² | - |
| 1777757926 | 6.67° C | 57% | 1012.3 hPa | 0 mm | - | 76 W/m² | - |
* Rain latest hour (hover to see other rain measurements)
** Current wind speed in m/s (hover to see current wind gust speed)